Date String (YYYY-MM-DD hh:mm:ss) UTC,Instrument flags,absolute air pressure of the measurement (hPa),sample flow rate (lpm),inlet stack bypass flow (lpm),air temperature of the measurement (°C),ambient temperature measured by the external sensor (°C),aerosol sample conditioner tube jacket temperature (°C),OPC LED temperature (°C),internal box temperature (°C),relative humidity of the measurement (%),span deviation,mass concentration of particles derived from Lorenz-Mie calculation of OPC scattering (μg/m³),mass concentration of particles derived from Lorenz-Mie calculation of OPC scattering (μg/m³),mass concentration of particles derived from Lorenz-Mie calculation of OPC scattering (μg/m³)
DateTimeUTC,F1_M11,P_M11,Q1_M11,Q2_M11,T1_M11,T2_M11,T3_M11,T4_M11,T5_M11,U1_M11,ZSPAN_M11,X0_M11,X2_M11,X1_M11
2024-01-27 05:00:00,SystemResetWarning,0836.8,5.00,000.00,022.7,021.5,000.0,031.0,024.0,16.7,0000.0,0006.23,0003.89,0003.74
2024-01-27 05:01:00,SystemResetWarning,0836.8,5.00,000.00,022.6,021.5,000.0,031.0,024.0,16.7,0000.0,0005.63,0003.92,0003.77
2024-01-27 05:02:00,SystemResetWarning,0836.8,5.00,000.00,022.6,021.4,000.0,031.0,024.0,16.8,0000.0,0005.41,0003.94,0003.81
2024-01-27 05:03:00,SystemResetWarning,0836.9,5.00,000.00,022.6,021.4,000.0,031.0,024.0,16.8,0000.0,0005.49,0004.00,0003.85
2024-01-27 05:04:00,SystemResetWarning,0836.9,5.00,000.00,022.6,021.4,000.0,031.0,024.0,16.8,0000.0,0005.55,0004.02,0003.87
2024-01-27 05:05:00,SystemResetWarning,0836.9,5.01,000.00,022.6,021.4,000.0,031.0,023.9,16.8,0000.0,0005.88,0004.02,0003.87
2024-01-27 05:06:00,SystemResetWarning,0836.9,5.00,000.00,022.6,021.4,000.0,031.0,023.9,16.8,0000.0,0007.16,0004.04,0003.88
2024-01-27 05:07:00,SystemResetWarning,0836.9,5.00,000.00,022.6,021.4,000.0,031.0,023.9,16.8,0000.0,0007.24,0004.06,0003.88
2024-01-27 05:08:00,SystemResetWarning,0837.0,5.00,000.00,022.6,021.4,000.0,030.9,023.9,16.8,0000.0,0007.26,0004.11,0003.92
2024-01-27 05:09:00,SystemResetWarning,0837.0,5.00,000.00,022.6,021.3,000.0,030.9,023.9,16.8,0000.0,0007.39,0004.16,0003.96
2024-01-27 05:10:00,SystemResetWarning,0837.0,4.99,000.00,022.6,021.3,000.0,030.9,023.9,16.9,0000.0,0007.38,0004.18,0003.97
2024-01-27 05:11:00,SystemResetWarning,0836.9,5.00,000.00,022.5,021.3,000.0,030.9,023.9,16.9,0000.0,0007.37,0004.18,0003.97
2024-01-27 05:12:00,SystemResetWarning,0836.9,5.01,000.00,022.5,021.3,000.0,030.9,023.9,16.9,0000.0,0007.59,0004.18,0003.96
2024-01-27 05:13:00,SystemResetWarning,0837.0,5.01,000.00,022.5,021.3,000.0,030.9,023.8,16.9,0000.0,0007.75,0004.19,0003.96
2024-01-27 05:14:00,SystemResetWarning,0837.0,5.00,000.00,022.5,021.3,000.0,030.9,023.8,16.8,0000.0,0007.76,0004.19,0003.96
2024-01-27 05:15:00,SystemResetWarning,0837.0,5.00,000.00,022.5,021.2,000.0,030.9,023.8,16.8,0000.0,0007.75,0004.18,0003.96
2024-01-27 05:16:00,SystemResetWarning,0837.0,5.01,000.00,022.5,021.2,000.0,030.9,023.8,16.8,0000.0,0008.21,0004.18,0003.96
2024-01-27 05:17:00,SystemResetWarning,0837.0,5.00,000.00,022.5,021.2,000.0,030.8,023.8,16.8,0000.0,0007.48,0004.17,0003.97
2024-01-27 05:18:00,SystemResetWarning,0837.0,5.00,000.00,022.5,021.2,000.0,030.8,023.8,16.8,0000.0,0007.48,0004.16,0003.97
2024-01-27 05:19:00,SystemResetWarning,0837.0,5.00,000.00,022.4,021.2,000.0,030.8,023.8,16.8,0000.0,0007.47,0004.14,0003.95
2024-01-27 05:20:00,SystemResetWarning,0837.0,4.99,000.00,022.4,021.2,000.0,030.8,023.8,16.7,0000.0,0007.36,0004.10,0003.92
2024-01-27 05:21:00,SystemResetWarning,0837.0,4.99,000.00,022.4,021.2,000.0,030.8,023.8,16.7,0000.0,0007.34,0004.10,0003.92
2024-01-27 05:22:00,SystemResetWarning,0837.1,5.00,000.00,022.4,021.2,000.0,030.8,023.7,16.7,0000.0,0007.40,0004.13,0003.95
2024-01-27 05:23:00,SystemResetWarning,0837.1,5.01,000.00,022.4,021.1,000.0,030.8,023.7,16.8,0000.0,0007.19,0004.15,0003.96
2024-01-27 05:24:00,SystemResetWarning,0837.1,5.00,000.00,022.4,021.1,000.0,030.8,023.7,16.8,0000.0,0006.97,0004.14,0003.96
2024-01-27 05:25:00,SystemResetWarning,0837.0,5.00,000.00,022.4,021.1,000.0,030.8,023.7,16.7,0000.0,0007.16,0004.16,0003.96
2024-01-27 05:26:00,SystemResetWarning,0837.1,5.00,000.00,022.4,021.1,000.0,030.8,023.7,16.7,0000.0,0007.29,0004.18,0003.97
2024-01-27 05:27:00,SystemResetWarning,0837.0,5.01,000.00,022.3,021.1,000.0,030.8,023.7,16.7,0000.0,0006.71,0004.20,0003.97
2024-01-27 05:28:00,SystemResetWarning,0837.0,5.01,000.00,022.3,021.1,000.0,030.7,023.7,16.7,0000.0,0006.22,0004.19,0003.96
2024-01-27 05:29:00,SystemResetWarning,0837.0,5.00,000.00,022.3,021.1,000.0,030.7,023.7,16.7,0000.0,0006.19,0004.19,0003.96
2024-01-27 05:30:00,SystemResetWarning,0837.1,5.00,000.00,022.3,021.1,000.0,030.7,023.7,16.6,0000.0,0006.29,0004.17,0003.96
2024-01-27 05:31:00,SystemResetWarning,0837.1,5.00,000.00,022.3,021.1,000.0,030.7,023.7,16.6,0000.0,0006.37,0004.17,0003.95
2024-01-27 05:32:00,SystemResetWarning,0837.1,4.99,000.00,022.3,021.1,000.0,030.7,023.7,16.6,0000.0,0006.33,0004.15,0003.94
2024-01-27 05:33:00,SystemResetWarning,0837.2,5.00,000.00,022.3,021.1,000.0,030.7,023.7,16.6,0000.0,0006.33,0004.14,0003.93
2024-01-27 05:34:00,SystemResetWarning,0837.1,5.00,000.00,022.3,021.1,000.0,030.7,023.7,16.6,0000.0,0006.18,0004.12,0003.93
2024-01-27 05:35:00,SystemResetWarning,0837.1,5.00,000.00,022.3,021.0,000.0,030.7,023.6,16.6,0000.0,0006.17,0004.14,0003.94
2024-01-27 05:36:00,SystemResetWarning,0837.2,5.00,000.00,022.3,021.0,000.0,030.7,023.6,16.5,0000.0,0006.22,0004.16,0003.95
2024-01-27 05:37:00,SystemResetWarning,0837.2,5.00,000.00,022.3,021.0,000.0,030.6,023.6,16.5,0000.0,0006.06,0004.16,0003.97
2024-01-27 05:38:00,SystemResetWarning,0837.2,5.00,000.00,022.3,021.0,000.0,030.6,023.6,16.5,0000.0,0005.94,0004.14,0003.96
2024-01-27 05:39:00,SystemResetWarning,0837.2,5.00,000.00,022.2,021.0,000.0,030.6,023.6,16.5,0000.0,0005.98,0004.14,0003.97
2024-01-27 05:40:00,SystemResetWarning,0837.2,5.00,000.00,022.2,021.0,000.0,030.6,023.6,16.4,0000.0,0006.05,0004.17,0003.98
2024-01-27 05:41:00,SystemResetWarning,0837.2,5.00,000.00,022.2,021.0,000.0,030.6,023.6,16.4,0000.0,0006.01,0004.19,0003.99
2024-01-27 05:42:00,SystemResetWarning,0837.2,5.01,000.00,022.2,021.0,000.0,030.6,023.5,16.3,0000.0,0006.02,0004.22,0004.00
2024-01-27 05:43:00,SystemResetWarning,0837.2,5.00,000.00,022.2,021.0,000.0,030.6,023.5,16.3,0000.0,0005.99,0004.24,0004.02
2024-01-27 05:44:00,SystemResetWarning,0837.2,5.00,000.00,022.2,020.9,000.0,030.6,023.5,16.3,0000.0,0006.16,0004.27,0004.04
2024-01-27 05:45:00,SystemResetWarning,0837.2,5.00,000.00,022.2,020.9,000.0,030.6,023.5,16.3,0000.0,0006.13,0004.27,0004.05
2024-01-27 05:46:00,SystemResetWarning,0837.2,4.99,000.00,022.2,020.9,000.0,030.6,023.5,16.3,0000.0,0006.14,0004.27,0004.05
2024-01-27 05:47:00,SystemResetWarning,0837.2,4.99,000.00,022.2,020.9,000.0,030.6,023.5,16.2,0000.0,0006.09,0004.27,0004.07
2024-01-27 05:48:00,SystemResetWarning,0837.2,5.00,000.00,022.1,020.9,000.0,030.5,023.5,16.2,0000.0,0006.01,0004.26,0004.07
2024-01-27 05:49:00,SystemResetWarning,0837.2,4.99,000.00,022.1,020.9,000.0,030.5,023.5,16.2,0000.0,0006.09,0004.28,0004.08
2024-01-27 05:50:00,SystemResetWarning,0837.2,5.00,000.00,022.1,020.9,000.0,030.5,023.4,16.2,0000.0,0006.21,0004.31,0004.10
2024-01-27 05:51:00,SystemResetWarning,0837.2,5.01,000.00,022.1,020.9,000.0,030.5,023.4,16.1,0000.0,0006.77,0004.31,0004.10
2024-01-27 05:52:00,SystemResetWarning,0837.2,5.01,000.00,022.1,020.9,000.0,030.5,023.4,16.2,0000.0,0007.32,0004.30,0004.10
2024-01-27 05:53:00,SystemResetWarning,0837.2,5.00,000.00,022.1,020.8,000.0,030.5,023.4,16.1,0000.0,0007.22,0004.27,0004.10
2024-01-27 05:54:00,SystemResetWarning,0837.2,4.99,000.00,022.1,020.8,000.0,030.5,023.4,16.1,0000.0,0007.21,0004.27,0004.09
2024-01-27 05:55:00,SystemResetWarning,0837.2,4.99,000.00,022.1,020.8,000.0,030.5,023.4,16.0,0000.0,0007.16,0004.25,0004.08
2024-01-27 05:56:00,SystemResetWarning,0837.2,4.99,000.00,022.1,020.8,000.0,030.5,023.4,16.0,0000.0,0007.18,0004.24,0004.08
2024-01-27 05:57:00,SystemResetWarning,0837.2,5.01,000.00,022.0,020.8,000.0,030.5,023.4,16.0,0000.0,0007.19,0004.24,0004.07
2024-01-27 05:58:00,SystemResetWarning,0837.2,5.00,000.00,022.0,020.8,000.0,030.4,023.4,15.9,0000.0,0007.23,0004.24,0004.07
2024-01-27 05:59:00,SystemResetWarning,0837.2,5.00,000.00,022.0,020.8,000.0,030.4,023.3,15.9,0000.0,0007.26,0004.24,0004.06
